Location: B?dimalle
(17.1788°N, 80.5377°E)
Time: 15:15:36
(UTC+00:00)

A-11 Canister half - Visible Passes

Search period start: 10 February 2026 00:00
Search period end: 20 February 2026 00:00
Orbit: 1526 x 1682 km, 47.3° (Epoch: 10 February)

Date Brightness Start Highest point End Pass type
(mag) Time Alt. Az. Time Alt. Az. Time Alt. Az.
10 Feb 10.9 14:02:49 10° WNW 14:07:27 14° NNW 14:12:05 10° N visible
10 Feb 10.4 22:41:28 20° SSW 22:41:28 20° SSW 22:45:14 10° S visible
11 Feb 10.8 13:40:28 10° WNW 13:45:28 15° NNW 13:50:28 10° N visible
11 Feb 10.7 22:21:19 17° S 22:21:19 17° S 22:23:40 10° S visible
12 Feb 10.8 13:18:08 10° WNW 13:23:29 16° NNW 13:28:49 10° N visible
12 Feb 10.9 22:01:07 13° S 22:01:07 13° S 22:02:04 10° S visible
13 Feb 10.8 12:55:50 10° WNW 13:01:30 17° NNW 13:07:10 10° N visible
19 Feb 10.8 15:06:17 10° N 15:06:58 10° N 15:06:58 10° N visible
